sat.trackr.live / text

‹ back to catalog

STARLINK-33653

NORAD 63380 · 2025-063T

PAYLOAD ACTIVE UNKNOWN

§ Identity

Operator
Country
US
Launch date
2025-03-26
Launch site
AFWTR
Launch vehicle
Mass (kg)
RCS (m²)

Purposes: comms

External: N2YO · Heavens-Above · Gunter

§ Orbital elements

Epoch: 2026-05-25T03:14:07.224576Z

Period
94.11 min
Inclination
53.1600°
Eccentricity
0.0001294
Mean motion
15.30198827 rev/d
Perigee alt
474.3 km
Apogee alt
476.1 km
Semi-major
6,853.4 km
B*
2.4931e-4
RAAN
57.3715°
Arg perigee
89.7586°
Mean anomaly
270.3563°
Rev number
6,641

§ Raw data

STARLINK-336531 63380U 25063T   26145.13480584  .00007031  00000+0  24931-3 0  99992 63380  53.1600  57.3715 0001294  89.7586 270.3563 15.30198827 66411

JSON: /api/v1/satellites/63380 · /tle

For live sub-satellite position, see the globe view (requires WebGL).

§ Visibility from observer

Set your observer location to see the next 7 days of passes ≥ 10°. The values pass through the URL so the page stays shareable.

No JS? Fill the form by hand. The geolocation button needs JavaScript.